• In Uzbekistan
  • List of Countries
  • For 7 days
  • Water Temperature
  • Weather Map
  • Weather Widgets
  • user-avatar
    Login

    Hourly Weather Satif

    Today, 18 September, Wednesday

    Time Temperature Precipitation Wind Pressure Humidity
    00:00 +22°C° 0 mm 4 mps 674 mmHg 51%
    01:00 +22°C° 0 mm 3 mps 674 mmHg 51%
    02:00 +22°C° 0 mm 3 mps 673 mmHg 51%
    03:00 +23°C° 0 mm 2 mps 673 mmHg 50%
    04:00 +22°C° 0 mm 3 mps 673 mmHg 50%
    05:00 +22°C° 0 mm 3 mps 673 mmHg 51%
    06:00 +22°C° 0 mm 3 mps 674 mmHg 51%
    07:00 +25°C° 0 mm 3 mps 674 mmHg 47%
    08:00 +26°C° 0 mm 3 mps 675 mmHg 43%
    09:00 +28°C° 0 mm 4 mps 675 mmHg 40%
    10:00 +29°C° 0 mm 4 mps 675 mmHg 36%
    11:00 +30°C° 0 mm 4 mps 676 mmHg 33%
    12:00 +32°C° 0 mm 5 mps 676 mmHg 30%
    13:00 +30°C° 0 mm 5 mps 676 mmHg 32%
    14:00 +30°C° 0 mm 6 mps 675 mmHg 33%
    15:00 +30°C° 0 mm 6 mps 675 mmHg 35%
    16:00 +29°C° 0 mm 5 mps 675 mmHg 37%
    17:00 +28°C° 0 mm 3 mps 675 mmHg 39%
    18:00 +27°C° 0 mm 2 mps 675 mmHg 40%
    19:00 +26°C° 0.3 mm 2 mps 675 mmHg 44%
    20:00 +25°C° 0.3 mm 2 mps 675 mmHg 47%
    21:00 +25°C° 0.3 mm 1 mps 675 mmHg 51%
    22:00 +24°C° 0.1 mm 2 mps 674 mmHg 51%
    23:00 +24°C° 0.1 mm 2 mps 674 mmHg 51%

    Tomorrow, 19 September, Thursday

    Time Temperature Precipitation Wind Pressure Humidity
    00:00 +24°C° 0.1 mm 2 mps 674 mmHg 50%
    01:00 +24°C° 0 mm 2 mps 674 mmHg 50%
    02:00 +24°C° 0 mm 3 mps 674 mmHg 49%
    03:00 +24°C° 0 mm 3 mps 674 mmHg 48%
    04:00 +24°C° 0 mm 3 mps 674 mmHg 49%
    05:00 +24°C° 0 mm 3 mps 674 mmHg 51%
    06:00 +24°C° 0 mm 3 mps 674 mmHg 52%
    07:00 +25°C° 0 mm 4 mps 674 mmHg 47%
    08:00 +26°C° 0 mm 4 mps 675 mmHg 43%
    09:00 +28°C° 0 mm 5 mps 676 mmHg 39%
    10:00 +29°C° 0 mm 5 mps 676 mmHg 35%
    11:00 +30°C° 0 mm 5 mps 676 mmHg 32%
    12:00 +32°C° 0 mm 5 mps 676 mmHg 29%
    13:00 +32°C° 0 mm 5 mps 676 mmHg 29%
    14:00 +32°C° 0 mm 5 mps 676 mmHg 29%
    15:00 +32°C° 0 mm 5 mps 675 mmHg 29%
    16:00 +30°C° 0 mm 5 mps 675 mmHg 33%
    17:00 +28°C° 0 mm 4 mps 675 mmHg 37%
    18:00 +27°C° 0 mm 3 mps 675 mmHg 42%
    19:00 +27°C° 0 mm 3 mps 675 mmHg 44%
    20:00 +26°C° 0 mm 2 mps 675 mmHg 45%
    21:00 +26°C° 0 mm 1 mps 675 mmHg 47%
    22:00 +26°C° 0 mm 2 mps 675 mmHg 46%
    23:00 +25°C° 0 mm 2 mps 675 mmHg 45%

    Day after tomorrow, 20 September, Friday

    Time Temperature Precipitation Wind Pressure Humidity
    00:00 +25°C° 0 mm 3 mps 674 mmHg 44%
    01:00 +25°C° 0 mm 3 mps 674 mmHg 44%
    02:00 +24°C° 0 mm 3 mps 674 mmHg 44%
    03:00 +24°C° 0 mm 3 mps 673 mmHg 44%
    04:00 +24°C° 0 mm 3 mps 673 mmHg 45%
    05:00 +24°C° 0 mm 3 mps 673 mmHg 46%
    06:00 +24°C° 0 mm 2 mps 673 mmHg 47%
    07:00 +26°C° 0 mm 4 mps 674 mmHg 40%
    08:00 +28°C° 0 mm 5 mps 675 mmHg 34%
    09:00 +30°C° 0 mm 6 mps 676 mmHg 27%
    10:00 +30°C° 0 mm 6 mps 676 mmHg 25%
    11:00 +32°C° 0 mm 6 mps 676 mmHg 24%
    12:00 +33°C° 0 mm 5 mps 676 mmHg 22%
    13:00 +32°C° 0 mm 5 mps 676 mmHg 22%
    14:00 +32°C° 0 mm 5 mps 676 mmHg 23%
    15:00 +30°C° 0 mm 4 mps 675 mmHg 23%
    16:00 +30°C° 0 mm 4 mps 675 mmHg 27%
    17:00 +29°C° 0 mm 3 mps 675 mmHg 31%
    18:00 +28°C° 0 mm 2 mps 675 mmHg 35%
    19:00 +27°C° 0 mm 2 mps 675 mmHg 36%
    20:00 +27°C° 0 mm 2 mps 675 mmHg 36%
    21:00 +26°C° 0 mm 2 mps 675 mmHg 37%
    22:00 +26°C° 0 mm 2 mps 674 mmHg 38%
    23:00 +26°C° 0 mm 2 mps 674 mmHg 38%

    21 September, Saturday

    Time Temperature Precipitation Wind Pressure Humidity
    00:00 +25°C° 0 mm 2 mps 673 mmHg 38%
    01:00 +25°C° 0 mm 3 mps 673 mmHg 39%
    02:00 +25°C° 0 mm 4 mps 673 mmHg 39%
    03:00 +25°C° 0 mm 4 mps 673 mmHg 39%
    04:00 +25°C° 0 mm 5 mps 673 mmHg 41%
    05:00 +25°C° 0 mm 5 mps 673 mmHg 42%
    06:00 +23°C° 0 mm 5 mps 673 mmHg 43%
    07:00 +26°C° 0 mm 7 mps 674 mmHg 39%
    08:00 +28°C° 0 mm 9 mps 675 mmHg 35%
    09:00 +29°C° 0 mm 11 mps 676 mmHg 31%
    10:00 +31°C° 0 mm 11 mps 676 mmHg 29%
    11:00 +32°C° 0 mm 11 mps 676 mmHg 27%
    12:00 +33°C° 0 mm 10 mps 676 mmHg 25%
    13:00 +33°C° 0 mm 10 mps 675 mmHg 26%
    14:00 +32°C° 0 mm 9 mps 675 mmHg 27%
    15:00 +32°C° 0 mm 8 mps 674 mmHg 28%
    16:00 +30°C° 0 mm 7 mps 674 mmHg 31%
    17:00 +29°C° 0 mm 5 mps 673 mmHg 34%
    18:00 +28°C° 0 mm 4 mps 673 mmHg 37%
    19:00 +27°C° 0 mm 3 mps 673 mmHg 39%
    20:00 +27°C° 0 mm 3 mps 673 mmHg 41%
    21:00 +26°C° 0 mm 3 mps 673 mmHg 42%
    22:00 +26°C° 0 mm 3 mps 673 mmHg 39%
    23:00 +26°C° 0 mm 4 mps 673 mmHg 36%

    22 September, Sunday

    Time Temperature Precipitation Wind Pressure Humidity
    00:00 +26°C° 0 mm 4 mps 673 mmHg 33%
    01:00 +26°C° 0 mm 4 mps 673 mmHg 34%
    02:00 +26°C° 0 mm 3 mps 673 mmHg 35%
    03:00 +25°C° 0 mm 2 mps 673 mmHg 36%
    04:00 +25°C° 0 mm 3 mps 673 mmHg 38%
    05:00 +25°C° 0 mm 3 mps 673 mmHg 41%
    06:00 +25°C° 0 mm 4 mps 673 mmHg 43%
    07:00 +26°C° 0 mm 5 mps 674 mmHg 38%
    08:00 +28°C° 0 mm 5 mps 674 mmHg 34%
    09:00 +29°C° 0 mm 6 mps 675 mmHg 29%
    10:00 +30°C° 0 mm 7 mps 675 mmHg 27%
    11:00 +32°C° 0 mm 8 mps 675 mmHg 25%
    12:00 +33°C° 0 mm 9 mps 675 mmHg 23%
    13:00 +32°C° 0 mm 9 mps 675 mmHg 26%
    14:00 +31°C° 0 mm 8 mps 675 mmHg 28%
    15:00 +31°C° 0 mm 8 mps 674 mmHg 31%
    16:00 +29°C° 0 mm 6 mps 674 mmHg 34%
    17:00 +28°C° 0 mm 4 mps 674 mmHg 37%
    18:00 +27°C° 0 mm 3 mps 674 mmHg 40%
    19:00 +27°C° 0 mm 3 mps 674 mmHg 41%
    20:00 +26°C° 0 mm 3 mps 675 mmHg 41%
    21:00 +26°C° 0 mm 3 mps 675 mmHg 42%
    22:00 +26°C° 0 mm 3 mps 675 mmHg 44%
    23:00 +25°C° 0 mm 3 mps 675 mmHg 46%

    23 September, Monday

    Time Temperature Precipitation Wind Pressure Humidity
    00:00 +24°C° 0 mm 2 mps 675 mmHg 48%
    01:00 +24°C° 0 mm 2 mps 674 mmHg 47%
    02:00 +24°C° 0 mm 2 mps 674 mmHg 46%
    03:00 +24°C° 0 mm 1 mps 674 mmHg 45%
    04:00 +24°C° 0 mm 1 mps 674 mmHg 46%
    05:00 +24°C° 0 mm 2 mps 675 mmHg 47%
    06:00 +24°C° 0 mm 2 mps 675 mmHg 48%
    07:00 +24°C° 0 mm 2 mps 675 mmHg 46%
    08:00 +25°C° 0 mm 2 mps 676 mmHg 44%
    09:00 +26°C° 0 mm 2 mps 676 mmHg 42%
    10:00 +28°C° 0 mm 3 mps 677 mmHg 38%
    11:00 +29°C° 0 mm 3 mps 677 mmHg 33%
    12:00 +30°C° 0 mm 3 mps 677 mmHg 28%
    13:00 +31°C° 0 mm 3 mps 677 mmHg 29%
    14:00 +31°C° 0 mm 3 mps 676 mmHg 30%
    15:00 +32°C° 0 mm 4 mps 676 mmHg 31%
    16:00 +29°C° 0 mm 3 mps 676 mmHg 39%
    17:00 +27°C° 0 mm 3 mps 675 mmHg 47%
    18:00 +25°C° 0 mm 2 mps 675 mmHg 55%
    19:00 +24°C° 0 mm 2 mps 675 mmHg 60%
    20:00 +24°C° 0 mm 2 mps 676 mmHg 65%
    21:00 +23°C° 0 mm 1 mps 676 mmHg 70%
    22:00 +22°C° 0 mm 1 mps 676 mmHg 72%
    23:00 +22°C° 0 mm 1 mps 675 mmHg 74%
    Show more